Погода в Цугле

Россия / Забайкальский край     51°02′47″N   115°37′25″E
темп.,
°C
ветер,
м/с
пор.,
м/с
влажн.,
%
обл.,
%
осадки,
мм/ч
давл.,
гПа
погр.,
м
28 февраля, вс
вс2800:00−19сз7177138 0.0 1032541
03:00−22зсз5107519 0.0 1034177
06:00−25з34790 0.0 103649
09:00−26зюз33820 0.0 103837
12:00−18зсз59760 0.0 1037851
15:00−15зсз59650 0.0 10351324
18:00−17з237610 0.0 103621
21:00−22зсз237646 0.0 103922
1 марта, пн
пн100:00−24з22730 0.0 104120
03:00−25юз23760 0.0 104220
06:00−27юз12760 0.0 104020
09:00−26ю227617 0.0 104019
12:00−20ю34780 0.0 1037310
15:00−16ю46842 0.0 1032517
18:00−18юв349372 0.0 103084
21:00−23ююв349461 0.0 103150
2 марта, вт
вт200:00−24ююв339591 0.0 102946
03:00−26ююв229987 0.0 102820
06:00−26ююв2210091 0.0 102619
09:00−25ююв239795 0.0 102476
12:00−20ююв359199 0.0 1021316
15:00−16ю468797 0.0 1017413
18:00−17ююв489386 0.0 1016248
21:00−21ююв339770 0.0 101728
3 марта, ср
ср300:00−22ююв239885 0.0 101520
03:00−21ююв229792 0.0 101321
06:00−21ююв129598 0.0 101220
09:00−20ю129469 0.0 101220
12:00−12ююз238394 0.0 1010208
15:00−8ю338396 0.0 1008307
18:00−8ю3694100 0.9 1007283
21:00−11ссз3495100 1.1 101093
4 марта, чт
чт400:00−15ссз5117289 0.0 1013218
03:00−20зсз5117344 0.0 1016189
06:00−23сз458322 0.0 102067
09:00−23ссз228759 0.0 102422
12:00−20с467949 0.0 1025499
15:00−18с467225 0.0 1026807
18:00−20всв128350 0.0 102920
21:00−23в118973 0.1 103420